When you browse on this site, cookies collect data to enhance your experience and personalize the content and advertising you see.
Visit our Privacy Policy to learn more. By continuing to use the site, you agree to this use of cookies and data.
  • In Belgien
  • Länderverzeichnis
  • Für 7 Tage
  • Wassertemperatur
  • Satellitenkarten
  • Wetterkarte
  • Widgets
  • user-avatar
    Anmelden

    Stündliche Wetter Vazhzhova

    Heute, 19 Juni, Mittwoch

    Zeit Temperatur Niederschläge Wind Luftdruck Luftfeuchtigkeit
    00:00 +18°C° 0 mm 3 m/S 743 mmHg 93%
    01:00 +17°C° 0 mm 3 m/S 743 mmHg 93%
    02:00 +17°C° 0 mm 3 m/S 743 mmHg 94%
    03:00 +17°C° 0 mm 3 m/S 743 mmHg 93%
    04:00 +17°C° 0 mm 3 m/S 743 mmHg 92%
    05:00 +18°C° 0 mm 2 m/S 744 mmHg 91%
    06:00 +19°C° 0 mm 3 m/S 744 mmHg 86%
    07:00 +21°C° 0 mm 3 m/S 744 mmHg 81%
    08:00 +22°C° 0 mm 3 m/S 744 mmHg 76%
    09:00 +25°C° 0.2 mm 3 m/S 744 mmHg 70%
    10:00 +26°C° 0.2 mm 3 m/S 744 mmHg 64%
    11:00 +27°C° 0.2 mm 3 m/S 745 mmHg 57%
    12:00 +27°C° 0.1 mm 3 m/S 745 mmHg 58%
    13:00 +27°C° 0.1 mm 3 m/S 745 mmHg 58%
    14:00 +27°C° 0.1 mm 2 m/S 745 mmHg 59%
    15:00 +26°C° 0.2 mm 2 m/S 745 mmHg 63%
    16:00 +26°C° 0.2 mm 3 m/S 745 mmHg 67%
    17:00 +26°C° 0.2 mm 3 m/S 745 mmHg 71%
    18:00 +24°C° 0 mm 2 m/S 745 mmHg 76%
    19:00 +21°C° 0 mm 2 m/S 745 mmHg 81%
    20:00 +20°C° 0 mm 2 m/S 745 mmHg 86%
    21:00 +19°C° 0 mm 2 m/S 745 mmHg 87%
    22:00 +18°C° 0 mm 2 m/S 745 mmHg 88%
    23:00 +18°C° 0 mm 1 m/S 745 mmHg 88%

    Morgen, 20 Juni, Donnerstag

    Zeit Temperatur Niederschläge Wind Luftdruck Luftfeuchtigkeit
    00:00 +18°C° 0 mm 1 m/S 745 mmHg 87%
    01:00 +16°C° 0 mm 1 m/S 745 mmHg 87%
    02:00 +16°C° 0 mm 1 m/S 745 mmHg 86%
    03:00 +16°C° 0 mm 1 m/S 746 mmHg 85%
    04:00 +18°C° 0 mm 1 m/S 746 mmHg 84%
    05:00 +18°C° 0 mm 1 m/S 746 mmHg 83%
    06:00 +20°C° 0 mm 1 m/S 746 mmHg 78%
    07:00 +21°C° 0 mm 1 m/S 746 mmHg 73%
    08:00 +23°C° 0 mm 2 m/S 746 mmHg 68%
    09:00 +24°C° 0 mm 2 m/S 746 mmHg 64%
    10:00 +25°C° 0 mm 2 m/S 746 mmHg 59%
    11:00 +26°C° 0 mm 2 m/S 746 mmHg 55%
    12:00 +27°C° 0 mm 2 m/S 746 mmHg 54%
    13:00 +27°C° 0 mm 2 m/S 746 mmHg 53%
    14:00 +28°C° 0 mm 2 m/S 746 mmHg 52%
    15:00 +27°C° 0 mm 2 m/S 746 mmHg 56%
    16:00 +27°C° 0 mm 2 m/S 746 mmHg 60%
    17:00 +27°C° 0 mm 2 m/S 745 mmHg 64%
    18:00 +25°C° 0 mm 1 m/S 745 mmHg 68%
    19:00 +23°C° 0 mm 1 m/S 745 mmHg 71%
    20:00 +21°C° 0 mm 1 m/S 745 mmHg 75%
    21:00 +21°C° 0 mm 1 m/S 746 mmHg 77%
    22:00 +20°C° 0 mm 1 m/S 746 mmHg 80%
    23:00 +19°C° 0 mm 1 m/S 746 mmHg 82%

    übermorgen, 21 Juni, Freitag

    Zeit Temperatur Niederschläge Wind Luftdruck Luftfeuchtigkeit
    00:00 +19°C° 0 mm 1 m/S 746 mmHg 83%
    01:00 +18°C° 0 mm 1 m/S 746 mmHg 84%
    02:00 +18°C° 0 mm 1 m/S 746 mmHg 84%
    03:00 +19°C° 0 mm 1 m/S 746 mmHg 84%
    04:00 +19°C° 0 mm 1 m/S 747 mmHg 84%
    05:00 +20°C° 0 mm 1 m/S 747 mmHg 84%
    06:00 +21°C° 0 mm 1 m/S 747 mmHg 79%
    07:00 +23°C° 0 mm 2 m/S 747 mmHg 74%
    08:00 +25°C° 0 mm 2 m/S 747 mmHg 69%
    09:00 +26°C° 0 mm 2 m/S 747 mmHg 65%
    10:00 +26°C° 0 mm 2 m/S 747 mmHg 61%
    11:00 +27°C° 0 mm 3 m/S 747 mmHg 57%
    12:00 +27°C° 0 mm 3 m/S 747 mmHg 56%
    13:00 +28°C° 0 mm 2 m/S 747 mmHg 56%
    14:00 +28°C° 0 mm 2 m/S 747 mmHg 56%
    15:00 +28°C° 0 mm 2 m/S 747 mmHg 59%
    16:00 +27°C° 0 mm 2 m/S 746 mmHg 62%
    17:00 +27°C° 0 mm 2 m/S 746 mmHg 64%
    18:00 +26°C° 0 mm 2 m/S 746 mmHg 68%
    19:00 +24°C° 0 mm 2 m/S 746 mmHg 71%
    20:00 +21°C° 0 mm 2 m/S 746 mmHg 74%
    21:00 +20°C° 0 mm 2 m/S 747 mmHg 75%
    22:00 +20°C° 0 mm 2 m/S 747 mmHg 76%
    23:00 +20°C° 0 mm 1 m/S 747 mmHg 76%

    22 Juni, Samstag

    Zeit Temperatur Niederschläge Wind Luftdruck Luftfeuchtigkeit
    00:00 +19°C° 0 mm 2 m/S 747 mmHg 78%
    01:00 +18°C° 0 mm 2 m/S 747 mmHg 80%
    02:00 +18°C° 0 mm 2 m/S 747 mmHg 82%
    03:00 +19°C° 0 mm 1 m/S 747 mmHg 82%
    04:00 +20°C° 0 mm 1 m/S 747 mmHg 82%
    05:00 +20°C° 0 mm 1 m/S 747 mmHg 82%
    06:00 +22°C° 0 mm 1 m/S 747 mmHg 78%
    07:00 +24°C° 0 mm 2 m/S 747 mmHg 73%
    08:00 +25°C° 0 mm 2 m/S 747 mmHg 69%
    09:00 +26°C° 0 mm 2 m/S 747 mmHg 64%
    10:00 +27°C° 0 mm 3 m/S 747 mmHg 59%
    11:00 +28°C° 0 mm 3 m/S 747 mmHg 54%
    12:00 +29°C° 0 mm 3 m/S 747 mmHg 53%
    13:00 +29°C° 0 mm 3 m/S 747 mmHg 53%
    14:00 +29°C° 0 mm 3 m/S 747 mmHg 52%
    15:00 +29°C° 0 mm 2 m/S 747 mmHg 55%
    16:00 +29°C° 0 mm 2 m/S 746 mmHg 58%
    17:00 +28°C° 0 mm 1 m/S 746 mmHg 61%
    18:00 +26°C° 0 mm 1 m/S 746 mmHg 64%
    19:00 +24°C° 0 mm 1 m/S 746 mmHg 67%
    20:00 +23°C° 0 mm 1 m/S 746 mmHg 71%
    21:00 +22°C° 0 mm 1 m/S 746 mmHg 73%
    22:00 +21°C° 0 mm 1 m/S 747 mmHg 75%
    23:00 +21°C° 0 mm 1 m/S 747 mmHg 77%

    23 Juni, Sonntag

    Zeit Temperatur Niederschläge Wind Luftdruck Luftfeuchtigkeit
    00:00 +20°C° 0 mm 1 m/S 747 mmHg 78%
    01:00 +20°C° 0 mm 1 m/S 747 mmHg 79%
    02:00 +20°C° 0 mm 1 m/S 747 mmHg 81%
    03:00 +20°C° 0 mm 1 m/S 747 mmHg 80%
    04:00 +21°C° 0 mm 1 m/S 747 mmHg 80%
    05:00 +22°C° 0 mm 1 m/S 747 mmHg 80%
    06:00 +23°C° 0 mm 1 m/S 747 mmHg 75%
    07:00 +25°C° 0 mm 1 m/S 747 mmHg 70%
    08:00 +26°C° 0 mm 2 m/S 748 mmHg 65%
    09:00 +27°C° 0 mm 2 m/S 748 mmHg 60%
    10:00 +28°C° 0 mm 2 m/S 748 mmHg 56%
    11:00 +29°C° 0 mm 2 m/S 748 mmHg 51%
    12:00 +29°C° 0 mm 2 m/S 747 mmHg 52%
    13:00 +29°C° 0 mm 2 m/S 747 mmHg 53%
    14:00 +30°C° 0 mm 2 m/S 747 mmHg 54%
    15:00 +29°C° 0 mm 2 m/S 747 mmHg 56%
    16:00 +29°C° 0 mm 2 m/S 746 mmHg 58%
    17:00 +29°C° 0 mm 1 m/S 746 mmHg 60%
    18:00 +27°C° 0 mm 1 m/S 746 mmHg 63%
    19:00 +25°C° 0 mm 1 m/S 746 mmHg 66%
    20:00 +24°C° 0 mm 1 m/S 746 mmHg 69%
    21:00 +23°C° 0 mm 1 m/S 746 mmHg 70%
    22:00 +22°C° 0 mm 1 m/S 746 mmHg 71%
    23:00 +22°C° 0 mm 1 m/S 746 mmHg 71%

    24 Juni, Montag

    Zeit Temperatur Niederschläge Wind Luftdruck Luftfeuchtigkeit
    00:00 +20°C° 0 mm 2 m/S 746 mmHg 72%
    01:00 +20°C° 0 mm 2 m/S 746 mmHg 72%
    02:00 +20°C° 0 mm 2 m/S 746 mmHg 72%
    03:00 +20°C° 0 mm 2 m/S 746 mmHg 74%
    04:00 +20°C° 0 mm 2 m/S 746 mmHg 77%
    05:00 +21°C° 0 mm 2 m/S 746 mmHg 79%
    06:00 +23°C° 0 mm 2 m/S 746 mmHg 75%
    07:00 +25°C° 0 mm 3 m/S 746 mmHg 70%
    08:00 +27°C° 0 mm 3 m/S 746 mmHg 66%
    09:00 +28°C° 0 mm 3 m/S 746 mmHg 62%
    10:00 +29°C° 0 mm 4 m/S 746 mmHg 59%
    11:00 +30°C° 0 mm 4 m/S 746 mmHg 55%
    12:00 +30°C° 0 mm 4 m/S 746 mmHg 54%
    13:00 +30°C° 0 mm 3 m/S 745 mmHg 54%
    14:00 +31°C° 0 mm 3 m/S 745 mmHg 53%
    15:00 +30°C° 0.2 mm 3 m/S 745 mmHg 58%
    16:00 +30°C° 0.2 mm 3 m/S 745 mmHg 63%
    17:00 +29°C° 0.2 mm 2 m/S 744 mmHg 68%
    18:00 +27°C° 0.3 mm 2 m/S 744 mmHg 70%
    19:00 +26°C° 0.3 mm 2 m/S 744 mmHg 73%
    20:00 +24°C° 0.3 mm 2 m/S 744 mmHg 75%
    21:00 +23°C° 0.2 mm 2 m/S 744 mmHg 77%
    22:00 +22°C° 0.2 mm 1 m/S 744 mmHg 79%
    23:00 +22°C° 0.2 mm 1 m/S 744 mmHg 80%
    Mehr zeigen